Home > Weather > Cuiabá > Past weeks

Flag for Brazil Weather for the Past 2 Weeks in Cuiabá, Mato Grosso, Brazil

Now
95 °F

Partly sunny.


Feels Like: 101 °F
Forecast: N/A
Wind: 5 mph from Northwest

Location: Cuiaba Aeroporto

Current Time: Feb 13, 2016 at 5:39:08 PM

Latest Report: Feb 13, 2016 at 5:00 PM


Visibility: N/A

Pressure: 29.77 "Hg

Humidity: 44%

Dew point: 70 °F

Location of CuiabáLocation

Historic Weather in Cuiabá — Graph

°F

Cuiabá Temperature Yesterday

Maximum temperature yesterday: 97 °F (at 1:00 PM)
Minimum temperature yesterday: 77 °F (at 6:00 AM)
Average temperature yesterday: 84 °F

High & Low Weather Summary for the Past Weeks

 TemperatureHumidityPressure
High97 °F (Feb 8, 3:00 PM)100% (Feb 5, 1:00 AM)30.04 "Hg (Feb 5, 1:00 AM)
Low70 °F (Feb 5, 1:00 AM)39% (Feb 12, 1:00 PM)29.21 "Hg (Jan 30, 3:00 PM)
Average82 °F74%29.90 "Hg
* Reported Jan 29 4:00 PM — Feb 13 4:00 PM, Cuiabá, Weather by CustomWeather, © 2016

Note: Actual official high and low records may vary slightly from our data, if they occured in-between our weather recording intervals... More about our weather records

Advertising

Cuiabá Weather History for the Previous 24 Hours

 ConditionsComfort  
Time TempWeatherWind HumidityBarometerVisibility
4:00 PM
Sat, Feb 13
93 °FPartly sunny.7 mph47%29.77 "HgN/A
3:00 PM93 °FPartly sunny.8 mph49%29.80 "HgN/A
2:00 PM95 °FScattered clouds.13 mph44%29.83 "HgN/A
1:00 PM93 °FPassing clouds.10 mph44%29.86 "HgN/A
12:00 PM93 °FPassing clouds.10 mph49%29.89 "HgN/A
11:00 AM91 °FSunny.12 mph56%29.92 "Hg10 mi
10:00 AM90 °FSunny.8 mph55%29.92 "Hg10 mi
9:00 AM86 °FSunny.9 mph62%29.89 "Hg10 mi
8:00 AM81 °FSunny.5 mph79%29.86 "Hg10 mi
7:00 AM77 °FClear.6 mph89%29.83 "Hg10 mi
6:00 AM77 °FPassing clouds.6 mph89%29.83 "HgN/A
5:00 AM77 °FPassing clouds.7 mph89%29.80 "HgN/A
4:00 AM81 °FClear.7 mph79%29.80 "Hg10 mi
3:00 AM79 °FClear.6 mph84%29.80 "Hg10 mi
2:00 AM79 °FClear.6 mph84%29.80 "Hg10 mi
1:00 AM79 °FClear.No wind84%29.83 "Hg10 mi
12:00 AM81 °FClear.2 mph74%29.86 "Hg10 mi
11:00 PM
Fri, Feb 12
82 °FClear.3 mph70%29.86 "Hg10 mi
10:00 PM82 °FPassing clouds.No wind66%29.86 "HgN/A
9:00 PM82 °FPassing clouds.2 mph74%29.83 "HgN/A
8:00 PM81 °FScattered clouds.No wind79%29.80 "HgN/A
7:00 PM82 °FPassing clouds.No wind74%29.80 "HgN/A
6:00 PM84 °FScattered clouds.6 mph66%29.80 "HgN/A
5:00 PM84 °FPartly sunny.7 mph74%29.80 "HgN/A
Weather by CustomWeather, © 2016

See weather overviewHow to use our weather pages